Jackson, Tennessee, United States (38301)
Lat: 35.61N, Lon: 88.81W
Wx Zone: TNZ052
Local Info
Past Weather Observations for Friday, September 19, 2014

NOTE: This archive is for the closest National Weather Service station to Jackson. Information may differ from the station used for current weather conditions.

Click here for Long-term Archive

Time Weather Temperature Dewpoint Humidity Pressure Winds Precip Visibility
23:56
Clear
Fog And Mist
64°F / 18°C 63°F / 17°C 94% 30.04 in
(1017 mb)
Calm - 3SM
23:53
Clear
Fog And Mist
63°F / 17°C 61°F / 16°C 94% 30.04 in
(1017 mb)
Calm - 1 1/2SM
23:47
Clear
Fog And Mist
64°F / 18°C 63°F / 17°C 94% 30.04 in
(1017 mb)
Calm - 1 3/4SM
23:40
Clear
64°F / 18°C 63°F / 17°C 94% 30.04 in
(1017 mb)
Calm - 7SM
23:18
Clear
Fog And Mist
66°F / 19°C 64°F / 18°C 94% 30.04 in
(1017 mb)
Calm - 2SM
23:13
Obscured
Fog And Mist
66°F / 19°C 64°F / 18°C 94% 30.04 in
(1017 mb)
Calm - 1SM
23:02
Partly Cloudy
Fog And Mist
64°F / 18°C 63°F / 17°C 94% 30.04 in
(1017 mb)
Calm - 1 1/4SM
22:53
Obscured
Fog
64°F / 18°C 64°F / 18°C 100% 30.04 in
(1017 mb)
Calm - 1/2SM
22:49
Obscured
Fog And Mist
66°F / 19°C 64°F / 18°C 94% 30.04 in
(1017 mb)
Calm - 1SM
22:38
Clear
Fog And Mist
66°F / 19°C 64°F / 18°C 94% 30.06 in
(1018 mb)
Calm - 3SM
22:34
Partly Cloudy
Fog And Mist
66°F / 19°C 64°F / 18°C 94% 30.06 in
(1018 mb)
Calm - 1 1/4SM
22:32
Obscured
Fog And Mist
66°F / 19°C 64°F / 18°C 94% 30.06 in
(1018 mb)
Calm - 3/4SM
22:24
Obscured
Fog
64°F / 18°C 63°F / 17°C 94% 30.06 in
(1018 mb)
Calm - 1/4SM
22:16
Clear
Fog
66°F / 19°C 64°F / 18°C 94% 30.06 in
(1018 mb)
Calm - 1/2SM
22:03
Obscured
Fog And Mist
66°F / 19°C 66°F / 19°C 100% 30.06 in
(1018 mb)
Calm - 3/4SM
22:00
Clear
Fog And Mist
68°F / 20°C 66°F / 19°C 94% 30.06 in
(1018 mb)
Calm - 1 1/4SM
21:53
Clear
Fog And Mist
66°F / 19°C 64°F / 18°C 94% 30.06 in
(1018 mb)
Calm - 3/4SM
21:49
Obscured
Fog And Mist
64°F / 18°C 64°F / 18°C 100% 30.04 in
(1017 mb)
Calm - 3/4SM
21:44
Partly Cloudy
Fog And Mist
66°F / 19°C 64°F / 18°C 94% 30.04 in
(1017 mb)
Calm - 1 3/4SM
21:42
Partly Cloudy
Fog And Mist
66°F / 19°C 64°F / 18°C 94% 30.04 in
(1017 mb)
Calm - 3SM
21:34
Partly Cloudy
Fog And Mist
66°F / 19°C 66°F / 19°C 100% 30.04 in
(1017 mb)
Calm - 2SM
21:27
Obscured
Fog And Mist
66°F / 19°C 66°F / 19°C 100% 30.04 in
(1017 mb)
Calm - 3/4SM
21:07
Clear
Fog And Mist
66°F / 19°C 66°F / 19°C 100% 30.04 in
(1017 mb)
Calm - 3/4SM
21:03
Partly Cloudy
Fog And Mist
68°F / 20°C 66°F / 19°C 94% 30.04 in
(1017 mb)
Calm - 1 1/4SM
20:53
Obscured
Fog
66°F / 19°C 64°F / 18°C 94% 30.04 in
(1017 mb)
Calm - 1/2SM
20:35
Obscured
Fog And Mist
66°F / 19°C 64°F / 18°C 94% 30.04 in
(1017 mb)
Calm - 3/4SM
20:33
Partly Cloudy
Fog And Mist
68°F / 20°C 64°F / 18°C 88% 30.04 in
(1017 mb)
Calm - 1 1/4SM
20:31
Clear
Fog And Mist
68°F / 20°C 66°F / 19°C 94% 30.04 in
(1017 mb)
Calm - 3SM
20:22
Partly Cloudy
Fog And Mist
70°F / 21°C 66°F / 19°C 88% 30.04 in
(1017 mb)
Calm - 2 1/2SM
20:03
Partly Cloudy
Fog And Mist
68°F / 20°C 66°F / 19°C 94% 30.04 in
(1017 mb)
Calm - 1 1/4SM
19:53
Obscured
Fog And Mist
70°F / 21°C 66°F / 19°C 88% 30.04 in
(1017 mb)
Calm - 3/4SM
19:49
Partly Cloudy
Fog And Mist
70°F / 21°C 68°F / 20°C 94% 30.04 in
(1017 mb)
Calm - 1 3/4SM
19:36
Clear
Fog And Mist
72°F / 22°C 68°F / 20°C 88% 30.04 in
(1017 mb)
Calm - 5SM
19:29
Clear
Fog And Mist
70°F / 21°C 66°F / 19°C 88% 30.04 in
(1017 mb)
Calm - 2 1/2SM
18:53
Clear
72°F / 22°C 70°F / 21°C 94% 30.01 in
(1016 mb)
Calm - 10SM
17:53
Clear
75°F / 24°C 70°F / 21°C 83% 30.01 in
(1016 mb)
Calm - 10SM
16:53
Clear
81°F / 27°C 70°F / 21°C 70% 30.01 in
(1016 mb)
Calm - 10SM
15:53
Clear
82°F / 28°C 66°F / 19°C 58% 30.01 in
(1016 mb)
Calm - 10SM
14:53
Partly Cloudy
82°F / 28°C 66°F / 19°C 58% 30.01 in
(1016 mb)
Calm - 10SM
13:53
Clear
82°F / 28°C 66°F / 19°C 58% 30.01 in
(1016 mb)
SSE 6.9 mph
(SSE 11 kph)
- 10SM
12:53
Partly Cloudy
82°F / 28°C 64°F / 18°C 55% 30.04 in
(1017 mb)
E 3.5 mph
(E 6 kph)
- 10SM
11:53
Overcast
81°F / 27°C 64°F / 18°C 58% 30.06 in
(1018 mb)
Variable 3.5 mph
(Variable 6 kph)
- 10SM
10:53
Clear
79°F / 26°C 63°F / 17°C 58% 30.06 in
(1018 mb)
SE 4.6 mph
(SE 7 kph)
- 10SM
09:53
Clear
77°F / 25°C 64°F / 18°C 65% 30.06 in
(1018 mb)
E 5.8 mph
(E 9 kph)
0.00 in
(0.00 mm)
10SM
08:53
Clear
72°F / 22°C 63°F / 17°C 73% 30.06 in
(1018 mb)
Calm - 10SM
07:53
Clear
66°F / 19°C 61°F / 16°C 83% 30.06 in
(1018 mb)
SE 4.6 mph
(SE 7 kph)
- 10SM
06:53
Clear
63°F / 17°C 61°F / 16°C 94% 30.04 in
(1017 mb)
Calm - 7SM
05:53
Partly Cloudy
61°F / 16°C 57°F / 14°C 88% 30.04 in
(1017 mb)
Calm - 7SM
05:37
Partly Cloudy
Fog And Mist
61°F / 16°C 57°F / 14°C 88% 30.04 in
(1017 mb)
Calm - 3SM
05:33
Partly Cloudy
Fog And Mist
59°F / 15°C 57°F / 14°C 94% 30.04 in
(1017 mb)
Calm - 1 1/4SM
05:19
Obscured
Fog And Mist
59°F / 15°C 57°F / 14°C 94% 30.04 in
(1017 mb)
Calm - 3/4SM
04:59
Partly Cloudy
Fog And Mist
59°F / 15°C 57°F / 14°C 94% 30.01 in
(1016 mb)
Calm - 1 1/2SM
04:53
Obscured
Fog
57°F / 14°C 57°F / 14°C 100% 30.01 in
(1016 mb)
Calm - 1/2SM
04:40
Obscured
Fog And Mist
59°F / 15°C 57°F / 14°C 94% 30.01 in
(1016 mb)
Calm - 3/4SM
04:38
Partly Cloudy
Fog And Mist
59°F / 15°C 57°F / 14°C 94% 30.01 in
(1016 mb)
Calm - 1 1/4SM
04:21
Clear
Fog And Mist
61°F / 16°C 59°F / 15°C 94% 30.01 in
(1016 mb)
Calm - 3SM
04:04
Partly Cloudy
Fog And Mist
61°F / 16°C 57°F / 14°C 88% 30.01 in
(1016 mb)
Calm - 1 1/2SM
03:53
Clear
Fog And Mist
61°F / 16°C 59°F / 15°C 94% 30.01 in
(1016 mb)
Calm - 5SM
02:53
Clear
61°F / 16°C 57°F / 14°C 88% 30.01 in
(1016 mb)
Calm - 8SM
01:53
Clear
63°F / 17°C 61°F / 16°C 94% 30.01 in
(1016 mb)
Calm - 9SM
00:53
Clear
63°F / 17°C 61°F / 16°C 94% 30.04 in
(1017 mb)
NE 3.5 mph
(NE 6 kph)
- 10SM
Time Weather Temperature Dewpoint Humidity Pressure Winds Precip Visibility


Weather for websites

WeatherForYou.com, LLC is not responsible for any damages or problems caused by this service. Current weather conditions are obtained from the closest station including government and personal stations which may have varying degrees of accuracy. Weather forecasts are derived from the NOAA NDFD. Like all things, this site belongs to Jesus Christ... He just trusts me to maintain it. If you have any questions or comments email webmaster@weatherforyou.com

Copyright © 2014, WeatherForYou.com LLC. All rights reserved.